User: anonymous   Login
Location: Newark
(39.9581°N, 97.2014°W)
Time: 18:03:00
(UTC+00:00)
Language:

Altair - Orbit

View from above orbital plane
View from above orbital plane
View from above satellite
View from above satellite

Ground track
Ground track

The orbit data is extracted from the following two-line orbital elements,

1    50U 60009B   20055.62381345 -.00000016 +00000-0 +65472-3 0  9999
2    50 047.2309 114.5598 0113332 346.1032 013.6649 12.20109210656326
Epoch (UTC): 24 February 2020 14:58:17
Eccentricity: 0.0113332
inclination: 47.2309°
perigee height: 1502 km
apogee height: 1682 km
right ascension of ascending node: 114.5598°
argument of perigee: 346.1032°
revolutions per day: 12.20109210
mean anomaly at epoch: 13.6649°
orbit number at epoch: 65632

The dashed part of the orbit path shows where the satellite is in the earth's shadow,  

DLR